Date String (YYYY-MM-DD hh:mm:ss) UTC,Instrument flags,Ambient pressure (hPa),Sample flow (lpm),Bypass flow (lpm),Sample temperature (°C),Ambient temperature (°C),ASC tube jacket temperature (°C),LED temperature (°C),Box temperature (°C),Sample RH (%),Span deviation,Mass concentration (μg/m³),Mass concentration (μg/m³),Mass concentration (μg/m³)
DateTimeUTC,F1_M11,P_M11,Q1_M11,Q2_M11,T1_M11,T2_M11,T3_M11,T4_M11,T5_M11,U1_M11,ZSPAN_M11,X0_M11,X2_M11,X1_M11
2022-08-20 19:00:00,,0829.8,5.01,0.00,30.1,28.5,00.0,38.7,31.8,28.3,0000.0,0018.24,0008.02,0007.10
2022-08-20 19:01:00,,0829.8,4.99,0.00,30.0,27.9,00.0,38.7,31.7,28.6,0000.0,0017.72,0007.98,0007.09
2022-08-20 19:02:00,,0829.7,5.01,0.00,30.0,27.7,00.0,38.7,31.7,28.4,0000.0,0016.80,0007.92,0007.08
2022-08-20 19:03:00,,0829.7,5.01,0.00,29.9,27.8,00.0,38.7,31.6,28.4,0000.0,0015.91,0007.86,0007.10
2022-08-20 19:04:00,,0829.7,4.99,0.00,29.9,27.9,00.0,38.7,31.7,28.9,0000.0,0016.11,0007.84,0007.09
2022-08-20 19:05:00,,0829.7,5.02,0.00,29.9,28.1,00.0,38.7,31.7,29.3,0000.0,0015.57,0007.84,0007.07
2022-08-20 19:06:00,,0829.7,5.00,0.00,29.9,28.2,00.0,38.7,31.7,29.6,0000.0,0013.38,0007.82,0007.04
2022-08-20 19:07:00,,0829.6,5.00,0.00,29.9,28.4,00.0,38.7,31.8,29.6,0000.0,0012.85,0007.81,0007.02
2022-08-20 19:08:00,,0829.6,5.01,0.00,29.9,28.5,00.0,38.7,31.8,29.2,0000.0,0012.70,0007.85,0007.03
2022-08-20 19:09:00,,0829.7,4.99,0.00,29.9,28.7,00.0,38.7,31.9,28.6,0000.0,0012.36,0007.87,0007.06
2022-08-20 19:10:00,,0829.7,5.01,0.00,30.0,28.8,00.0,38.7,31.9,28.7,0000.0,0012.82,0007.89,0007.09
2022-08-20 19:11:00,,0829.6,5.00,0.00,30.0,28.9,00.0,38.7,32.0,29.0,0000.0,0013.01,0007.88,0007.11
2022-08-20 19:12:00,,0829.6,5.00,0.00,30.0,29.0,00.0,38.8,32.0,29.4,0000.0,0013.05,0007.90,0007.12
2022-08-20 19:13:00,,0829.6,5.00,0.00,30.1,29.1,00.0,38.8,32.1,29.8,0000.0,0013.19,0007.94,0007.14
2022-08-20 19:14:00,,0829.6,5.00,0.00,30.1,29.2,00.0,38.8,32.1,29.1,0000.1,0013.26,0007.99,0007.15
2022-08-20 19:15:00,,0829.6,5.00,0.00,30.1,28.9,00.0,38.8,32.0,29.3,0000.0,0012.86,0008.03,0007.17
2022-08-20 19:16:00,,0829.6,5.00,0.00,30.1,28.2,00.0,38.7,31.8,30.0,0000.0,0013.34,0008.07,0007.20
2022-08-20 19:17:00,,0829.6,4.99,0.00,30.0,27.8,00.0,38.7,31.7,29.0,0000.0,0013.71,0008.13,0007.23
2022-08-20 19:18:00,,0829.5,5.00,0.00,29.9,27.8,00.0,38.7,31.7,28.6,0000.0,0014.50,0008.18,0007.25
2022-08-20 19:19:00,,0829.5,5.01,0.00,29.9,27.9,00.0,38.7,31.7,28.9,0000.0,0014.90,0008.18,0007.26
2022-08-20 19:20:00,,0829.5,4.99,0.00,29.9,28.0,00.0,38.7,31.7,29.1,0000.0,0014.98,0008.17,0007.28
2022-08-20 19:21:00,,0829.5,5.01,0.00,29.9,28.2,00.0,38.7,31.7,28.9,0000.0,0014.47,0008.18,0007.29
2022-08-20 19:22:00,,0829.5,5.00,0.00,29.9,28.3,00.0,38.7,31.8,28.4,0000.0,0014.38,0008.20,0007.30
2022-08-20 19:23:00,,0829.5,5.00,0.00,29.9,28.5,00.0,38.7,31.8,29.0,0000.0,0014.60,0008.23,0007.31
2022-08-20 19:24:00,,0829.5,5.02,0.00,30.0,28.6,00.0,38.7,31.9,29.1,0000.0,0014.60,0008.27,0007.33
2022-08-20 19:25:00,,0829.5,5.00,0.00,30.0,28.8,00.0,38.7,32.0,29.0,0000.0,0014.59,0008.27,0007.36
2022-08-20 19:26:00,,0829.5,5.01,0.00,30.0,28.9,00.0,38.7,32.0,29.2,0000.0,0014.48,0008.27,0007.36
2022-08-20 19:27:00,,0829.5,5.00,0.00,30.0,29.0,00.0,38.8,32.0,28.7,0000.0,0014.07,0008.25,0007.39
2022-08-20 19:28:00,,0829.6,5.00,0.00,30.1,29.1,00.0,38.8,32.1,28.6,0000.0,0014.67,0008.26,0007.41
2022-08-20 19:29:00,,0829.6,5.00,0.00,30.1,28.7,00.0,38.8,31.9,28.3,0000.0,0014.01,0008.28,0007.44
2022-08-20 19:30:00,,0829.5,4.99,0.00,30.0,28.0,00.0,38.7,31.7,28.6,0000.0,0014.11,0008.30,0007.48
2022-08-20 19:31:00,,0829.5,5.00,0.00,30.0,27.6,00.0,38.7,31.7,28.9,0000.0,0014.06,0008.33,0007.48
2022-08-20 19:32:00,,0829.5,5.00,0.00,29.9,27.6,00.0,38.7,31.5,29.8,0000.0,0014.33,0008.35,0007.49
2022-08-20 19:33:00,,0829.5,5.00,0.00,29.8,27.8,00.0,38.7,31.6,30.1,0000.0,0014.26,0008.39,0007.52
2022-08-20 19:34:00,,0829.5,5.00,0.00,29.8,27.9,00.0,38.7,31.6,30.0,0000.0,0014.43,0008.36,0007.51
2022-08-20 19:35:00,,0829.5,5.00,0.00,29.8,28.1,00.0,38.6,31.7,30.0,0000.3,0014.30,0008.31,0007.50
2022-08-20 19:36:00,,0829.5,5.01,0.00,29.9,28.3,00.0,38.7,31.7,29.7,0000.1,0014.43,0008.28,0007.49
2022-08-20 19:37:00,,0829.5,5.00,0.00,29.9,28.4,00.0,38.7,31.8,30.1,0000.0,0014.53,0008.28,0007.50
2022-08-20 19:38:00,,0829.5,5.00,0.00,29.9,28.6,00.0,38.7,31.8,30.1,0000.0,0014.77,0008.32,0007.49
2022-08-20 19:39:00,,0829.5,5.00,0.00,29.9,28.7,00.0,38.7,31.9,29.4,0000.3,0014.18,0008.37,0007.50
2022-08-20 19:40:00,,0829.5,5.00,0.00,30.0,28.8,00.0,38.7,31.9,29.3,0000.4,0014.08,0008.34,0007.50
2022-08-20 19:41:00,,0829.4,5.00,0.00,30.0,29.0,00.0,38.7,32.0,29.2,0000.8,0014.03,0008.34,0007.48
2022-08-20 19:42:00,,0829.4,5.00,0.00,30.0,29.1,00.0,38.7,32.0,29.2,0000.7,0014.23,0008.38,0007.48
2022-08-20 19:43:00,,0829.4,5.01,0.00,30.1,29.1,00.0,38.8,32.1,28.8,0001.0,0014.64,0008.39,0007.47
2022-08-20 19:44:00,,0829.3,5.00,0.00,30.1,28.7,00.0,38.8,31.9,29.1,0000.6,0014.81,0008.37,0007.46
2022-08-20 19:45:00,,0829.3,5.00,0.00,30.0,28.0,00.0,38.7,31.7,29.4,0001.3,0014.44,0008.43,0007.50
2022-08-20 19:46:00,,0829.5,5.00,0.00,29.9,27.6,00.0,38.7,31.6,29.8,0000.9,0014.60,0008.49,0007.52
2022-08-20 19:47:00,,0829.3,5.00,0.00,29.9,27.7,00.0,38.7,31.5,29.8,0001.4,0014.57,0008.55,0007.54
2022-08-20 19:48:00,,0829.4,5.01,0.00,29.8,27.8,00.0,38.6,31.6,29.8,0001.2,0014.74,0008.55,0007.55
2022-08-20 19:49:00,,0829.5,4.99,0.00,29.8,27.9,00.0,38.6,31.6,29.9,0000.7,0015.09,0008.54,0007.57
2022-08-20 19:50:00,,0829.3,5.00,0.00,29.8,28.1,00.0,38.6,31.7,30.3,0000.5,0014.81,0008.47,0007.56
2022-08-20 19:51:00,,0829.4,5.00,0.00,29.8,28.3,00.0,38.6,31.7,30.2,0000.1,0014.84,0008.47,0007.57
2022-08-20 19:52:00,,0829.3,5.00,0.00,29.9,28.5,00.0,38.7,31.8,29.7,0000.0,0014.78,0008.48,0007.60
2022-08-20 19:53:00,,0829.2,5.00,0.00,29.9,28.6,00.0,38.7,31.9,29.8,0000.0,0015.10,0008.47,0007.63
2022-08-20 19:54:00,,0829.3,5.00,0.00,29.9,28.8,00.0,38.7,31.9,29.9,0000.0,0015.71,0008.48,0007.65
2022-08-20 19:55:00,,0829.2,5.01,0.00,30.0,28.9,00.0,38.7,32.0,30.4,0000.0,0015.98,0008.48,0007.66
2022-08-20 19:56:00,,0829.2,4.99,0.00,30.0,29.0,00.0,38.7,32.0,30.2,0000.0,0016.28,0008.52,0007.66
2022-08-20 19:57:00,,0829.2,5.00,0.00,30.1,29.1,00.0,38.7,32.0,30.1,0000.0,0016.37,0008.52,0007.69
2022-08-20 19:58:00,,0829.2,5.00,0.00,30.1,28.9,00.0,38.8,32.0,29.6,0000.0,0016.34,0008.51,0007.72
2022-08-20 19:59:00,,0829.3,4.96,0.00,30.0,28.4,00.0,38.7,31.9,29.5,0000.0,0016.43,0008.54,0007.74
